Вернуться в каталог

QIANFAN-71

АктивенСвязьPO
NORAD 62801·PAYLOAD·🇨🇳 China

Запущен Jan 23, 2025 с Taiyuan Satellite Launch Center

Loading…

Ближайшие Пролёты (ближайшие 24 часа)

TLE

СвежийSource: Space-Track

Эпоха: Sep 14, 2026, 14:15 UTC

1 62801U 25016S   26257.59443225  .00000037  00000-0  39017-4 0  9991
2 62801  88.9659  74.4214 0013854 272.0616  87.8949 13.51026560 84489

Отслеживайте QIANFAN-71 в реальном времени с AllMySat

Download on the App Store